Location: Grasslands National Park East Block
(49.0708°N, 106.5295°W)
Time: 02:12:56
(UTC-06:00)

AO-73 - Visible Passes

Search period start: 19 September 2019 00:00
Search period end: 29 September 2019 00:00
Orbit: 581 x 665 km, 97.6° (Epoch: 18 September)

Date Brightness Start Highest point End Pass type
(mag) Time Alt. Az. Time Alt. Az. Time Alt. Az.
19 Sep ? 20:14:47 10° WSW 20:16:38 13° W 20:18:29 10° WNW visible
22 Sep ? 19:30:59 10° SSW 19:34:40 31° W 19:38:22 10° NNW visible
23 Sep ? 19:49:53 10° SW 19:53:01 21° W 19:56:10 10° NW visible
24 Sep ? 20:09:15 10° WSW 20:11:25 14° W 20:13:35 10° WNW visible
27 Sep ? 19:25:43 10° SSW 19:29:29 34° W 19:33:16 10° NNW visible
28 Sep ? 19:44:32 10° SW 19:47:49 23° W 19:51:06 10° NW visible
